White Plains, CT

3:30 AM EDT on September 19, 2019 (GMT -0400)
Westchester County

Weather History for KHPN - July, 2019

Change the Weather History Date:

Wednesday, July 10, 2019

  Actual Average Record
Temperature  
Mean Temperature 76 °F -  
Max Temperature 87 °F 79 °F 97 °F (1993)
Min Temperature 64 °F 61 °F 35 °F (1998)
Cooling Degree Days 10    
Growing Degree Days 26 (Base 50)    
Moisture  
Dew Point 64 °F    
Average Humidity 69    
Maximum Humidity 93    
Minimum Humidity 41    
Precipitation  
Precipitation 0.00 in - - ()
Sea Level Pressure  
Sea Level Pressure 30.01 in    
Wind  
Wind Speed 3 mph (West)    
Max Wind Speed 10 mph    
Max Gust Speed -    
Visibility 10 miles    
Events      
Averages and records for this station are not official NWS values.
T = Trace of Precipitation, MM = Missing Value Source: NWS Daily Summary

Daily Weather History Graph

Daily Weather History Graph

Search for Another Location

Airport or City:

Astronomy

Jul. 10, 2019 Rise Set
Actual Time 5:31 AM EDT 8:28 PM EDT
Civil Twilight 4:58 AM EDT 9:01 PM EDT
Nautical Twilight 4:16 AM EDT 9:43 PM EDT
Astronomical Twilight 3:27 AM EDT 10:31 PM EDT
Moon 2:29 PM EDT (7/10) 1:12 AM EDT (7/10)
Length of Visible Light 16h 02m
Length of Day
14h 57m
Waxing Gibbous, 63% of the Moon is Illuminated
Jul 10
Waxing Gibbous
Jul 16
Full
Jul 24
Last Quarter
Jul 31
New
Aug 7
First Quarter

Hourly Weather History & Observations

Time (EDT) Temp. Heat Index Dew Point Humidity Pressure Visibility Wind Dir Wind Speed Gust Speed Precip Events Conditions
12:56 AM 69.1 °F - 64.0 °F 84% 30.03 in 10.0 mi Calm Calm - N/A   Clear
1:56 AM 68.0 °F - 64.0 °F 87% 30.02 in 10.0 mi Calm Calm - N/A   Clear
2:56 AM 66.9 °F - 64.0 °F 90% 30.01 in 10.0 mi Calm Calm - N/A   Clear
3:56 AM 66.0 °F - 64.0 °F 93% 30.01 in 10.0 mi NW 4.6 mph - N/A   Clear
4:56 AM 64.9 °F - 62.1 °F 90% 30.02 in 10.0 mi NW 5.8 mph - N/A   Clear
5:56 AM 64.9 °F - 61.0 °F 87% 30.03 in 10.0 mi NW 5.8 mph - N/A   Clear
6:56 AM 68.0 °F - 61.0 °F 78% 30.04 in 10.0 mi NNW 6.9 mph - N/A   Clear
7:56 AM 72.0 °F - 64.0 °F 76% 30.05 in 10.0 mi NW 4.6 mph - N/A   Clear
8:56 AM 75.0 °F - 63.0 °F 66% 30.05 in 10.0 mi WNW 4.6 mph - N/A   Clear
9:56 AM 79.0 °F - 62.1 °F 56% 30.04 in 10.0 mi WNW 4.6 mph - N/A   Clear
10:56 AM 82.0 °F 83.4 °F 64.0 °F 54% 30.04 in 10.0 mi NW 4.6 mph - N/A   Partly Cloudy
11:56 AM 84.0 °F 85.4 °F 64.0 °F 51% 30.03 in 10.0 mi WNW 5.8 mph - N/A   Scattered Clouds
12:56 PM 86.0 °F 86.3 °F 62.1 °F 44% 30.02 in 10.0 mi Variable 4.6 mph - N/A   Scattered Clouds
1:56 PM 84.9 °F 84.4 °F 59.0 °F 41% 30.01 in 10.0 mi SW 5.8 mph - N/A   Scattered Clouds
2:56 PM 84.9 °F 86.1 °F 64.0 °F 49% 30.00 in 10.0 mi SSE 6.9 mph - N/A   Scattered Clouds
3:56 PM 86.0 °F 86.3 °F 62.1 °F 44% 29.99 in 10.0 mi South 4.6 mph - N/A   Scattered Clouds
4:56 PM 87.1 °F 87.0 °F 61.0 °F 41% 29.98 in 10.0 mi Calm Calm - N/A   Scattered Clouds
5:56 PM 84.0 °F 86.3 °F 66.0 °F 55% 29.97 in 10.0 mi SSE 10.4 mph - N/A   Scattered Clouds
6:56 PM 82.0 °F 84.9 °F 68.0 °F 62% 29.97 in 10.0 mi SSE 5.8 mph - N/A   Partly Cloudy
7:56 PM 79.0 °F - 68.0 °F 69% 29.96 in 10.0 mi SSE 6.9 mph - N/A   Clear
8:56 PM 75.9 °F - 68.0 °F 76% 29.96 in 10.0 mi SE 3.5 mph - N/A   Clear
9:56 PM 75.0 °F - 69.1 °F 82% 29.98 in 10.0 mi East 4.6 mph - N/A   Clear
10:56 PM 73.0 °F - 69.1 °F 87% 29.97 in 10.0 mi Calm Calm - N/A   Clear
11:56 PM 73.0 °F - 69.1 °F 87% 29.96 in 10.0 mi Calm Calm - N/A   Scattered Clouds